Location: ???????
(55.4362°N, 38.1183°E)
Time: 17:23:28
(UTC+00:00)

Cosmos 2219 Rocket - Pass Details

Date: 27 October 2021
Orbit: 826 x 848 km, 71.0° (Epoch: 04 December)

Event Time Altitude Azimuth Distance (km) Brightness Sun altitude
Exits shadow 02:32:04 17° 308° (NW) 2,007 3.7 -16.1°
Maximum altitude 02:35:48 37° 251° (WSW) 1,297 2.7 -15.6°
Drops below altitude 10° 02:40:56 10° 186° (S) 2,464 4.6 -14.8°
Sets 02:43:32 0° 178° (S) 3,397 5.4 -14.5°
